DELTA 1 DEB, 7039

Orbit data source: Space-Track

DELTA 1 DEB, 7039 is space debris in SSO originally from a launch on Tue, 06 Nov 1973 UTC launched from the Air Force Western Test Range (AFWTR). Debris objects in space refer to the collection of defunct objects orbiting the Earth. Examples of debris include non-operational satellites, rocket bodies, and fragments generated from explosions, collisions, or faulty payload assembly.

Loading next visibility...
Identifier
7039, 1973-086AF
Orbit
SSO
Country
Flag of USUS
Related business
Manufacturer
Unknown
Mission
Spacecraft
Bus & Motor
Unknown
Mass
Unknown
Launch date (UTC)
1973-11-06 (53 years ago)
Launch vehicle
Unknown
Launch site
Air Force Western Test Range (AFWTR)
Object type
Payload
Rocket body
Debris
Shape & HBR
Unknown shape, 0.1 m
Radar Cross Section
Medium (>0.1 m² and <1 m²)

Expand to show TLE details & history
Last TLE update: 6 hours ago

TLE from 6 hours ago
0 DELTA 1 DEB
1 07039U 73086AF  26263.86923821  .00000023  00000-0  45747-3 0  9996
2 07039 102.5511 270.4304 0130109 118.6538   1.5325 12.49621525409064
Epoch: 2026-09-20T20:51Z
TLE epoch observation values (Epoch: 2026-09-20T20:51:42.181Z)
Latitude
57.5954°
Longitude
158.17369°
Altitude
1,373.494 km
Speed
7.224 km/s
True Right ascension
07h 23m 25s
True Declination
57° 27' 07"
Sunlit
Object was in daylight at epoch
Visualization orbit readout
Latitude
Unknown
Longitude
Unknown
Altitude
Unknown
Speed
Unknown
Apparent Right ascension
Unknown
Apparent Declination
Unknown
Sunlit
N/A
Visualization observer readout
Local Sidereal Time
19:46:45
Azimuth
Unknown
Elevation
Unknown
Doppler factor
Unknown
Orbital elements
Apogee altitude
1,565.703 km
Perigee altitude
1,361.645 km
Semi-major axis
7,841.811 km
Eccentricity
0.01301
Inclination
102.5511°
RAAN
270.4304°
Arg. of periapsis
118.6538°
True anomaly
1.57303°
Mean anomaly
1.5325°
Eccentric anomaly
1.5527°
Mean motion
3.12549 °/min
Orbital period
115.18 mins
BSTAR
0.00045747
Loading maneuver chart data...
Computing Atmospheric mass density...
Loading historical data...
Loading historical data...
Loading historical data...
Loading historical data...
Loading historical data...
Loading historical data...
Loading historical data...

Documentation

Showing up to 5 results
|